Regional Weather Roundup
Issued by NWS

Home | Current Version | Previous Version | Text Only | Print | Product List | Glossary Off
Versions: 1 2 3 4 5 6 7 8 9 10 11 12 13 14 15 16 17 18 19 20 21 22 23 24 25 26 27 28 29 30 31 32 33 34 35 36 37 38 39 40 41 42 43 44 45 46 47 48 49 50

000
ASUS45 KABQ 032310
RWRNM
NEW MEXICO REGIONAL WEATHER ROUNDUP
NATIONAL WEATHER SERVICE ALBUQUERQUE NM
500 PM MDT FRI JUL 03 2015

NOTE: "FAIR" MEANS FEW OR NO CLOUDS BELOW 12,000 FEET AGL WITH NO
       SIGNIFICANT WEATHER OR OBSTRUCTIONS TO VISION.

      THIS PRODUCT IS RELEASED AS TWO VERSIONS.  ONE VERSION NEAR
      THE TOP OF THE HOUR CONTAINING PRELIMINARY DATA FROM ALBUQUERQUE
      AND OTHER STATIONS.  A FINAL VERSION WITH ADDITIONAL DATA IS
      ISSUED ABOUT 10 MINUTES AFTER THE HOUR.

NMZ501-503-504-510>518-040000-
NORTHWEST PLATEAU/NORTHCENTRAL MOUNTAINS

CITY           SKY/WX    TMP DP  RH WIND       PRES   REMARKS
FARMINGTON     SUNNY     89  49  25 CALM      30.04F
LOS ALAMOS     CLOUDY    68  56  65 SW8       30.24F
SANTA FE       CLOUDY    76  50  40 N7        30.17F
TAOS           MOSUNNY   75  46  35 S8        30.24F
ANGEL FIRE     FAIR      67  51  57 S10       30.33F

$$
NMZ402-403-502-505>509-040000-
WESTCENTRAL MOUNTAINS/SOUTHWEST MOUNTAINS

CITY           SKY/WX    TMP DP  RH WIND       PRES   REMARKS
GALLUP         PTSUNNY   86  45  23 N12       30.11F
GRANTS         MOSUNNY   84  46  25 S6        30.16F
SILVER CITY      N/A     82  54  36 NE7       30.09F

$$
NMZ407-409-411-412-040000-
SOUTHERN DESERTS

CITY           SKY/WX    TMP DP  RH WIND       PRES   REMARKS
LORDSBURG      FAIR      90  54  29 CALM      29.97F
DEMING         MOSUNNY   93  52  24 CALM      29.97F
LAS CRUCES     MOSUNNY   92  53  26 E6        30.01F
HOLLOMAN AFB   MOSUNNY   91  55  28 S18       29.96F
ALAMOGORDO     MOSUNNY   91  54  27 SE9G21    29.99F
T OR C         CLOUDY    85  56  37 NE9       30.04R

$$
NMZ519>523-040000-
CENTRAL VALLEYS/CENTRAL HIGHLANDS

CITY           SKY/WX    TMP DP  RH WIND       PRES   REMARKS
ALBUQUERQUE    PTSUNNY   87  54  32 NW9       30.08F
DOUBLE EAGLE   PTSUNNY   84  57  39 W6        30.13F
MORIARTY ARPT    N/A     83  49  31 E7        30.17S THUNDER
CLINES CORNERS CLOUDY    71  53  52 N15       30.23R
BELEN          FAIR      90  50  25 SE13G20   30.06F
SOCORRO        FAIR      89  52  28 SE10      30.02F

$$
NMZ524>526-539-540-040000-
SOUTHCENTRAL MOUNTAINS

CITY           SKY/WX    TMP DP  RH WIND       PRES   REMARKS
RUIDOSO        SUNNY     73  54  49 SE20      30.25S

$$
NMZ527>531-040000-
NORTHEAST HIGHLANDS/NORTHEAST PLAINS

CITY           SKY/WX    TMP DP  RH WIND       PRES   REMARKS
LAS VEGAS      TSTM      61  54  77 SW10      30.27S
RATON          PTSUNNY   76  56  49 S24G31    30.16R
CLAYTON        MOSUNNY   86  52  30 S16       30.06S

$$
NMZ532>537-040000-
EASTCENTRAL PLAINS

CITY           SKY/WX    TMP DP  RH WIND       PRES   REMARKS
TUCUMCARI      PTSUNNY   88  53  30 SW8       30.02F
CANNON AFB     PTSUNNY   85  53  32 S8        30.06F
CLOVIS AIRPORT PTSUNNY   84  54  34 SE9         N/A

$$
NMZ028-029-538-040000-
SOUTHEAST PLAINS

CITY           SKY/WX    TMP DP  RH WIND       PRES   REMARKS
ROSWELL        PTSUNNY   86  61  42 SE12      30.03F
ARTESIA        CLOUDY    82  63  51 VRB6G15   30.03F
CARLSBAD       CLOUDY    76  66  71 SW5       30.00F
HOBBS          PTSUNNY   81  63  54 W13       30.03F


$$


USA.gov is the U.S. government's official web portal to all federal, state and local government web resources and services.